Location: Gro�bocka
(50.8204°N, 11.9702°E)
Time: 07:08:22
(UTC+00:00)

Cosmos 1656 - Pass Details

Date: 29 October 2020
Orbit: 797 x 851 km, 71.1° (Epoch: 01 December)

Event Time Altitude Azimuth Distance (km) Brightness Sun altitude
Rises 16:34:06 0° 180° (S) 3,339 7.0 -7.3°
Reaches altitude 10° 16:36:40 10° 172° (S) 2,420 6.2 -7.7°
Maximum altitude 16:41:41 36° 107° (ESE) 1,289 4.3 -8.4°
Drops below altitude 10° 16:46:48 10° 42° (NE) 2,468 5.7 -9.2°
Enters shadow 16:49:03 - 35° (NE) 3,274 6.3 -9.6°
